FW1036 Weather Reports


Display with metric or nautical units.
time (UTC)temp
F
wind
direction
speed
MPH
gust
MPH
rain 1hr
in
rain 24hr
in
rain mn
in
humidity
%
barometer
mb
20260905151522 72 68 6.0 12.0 0.00 0.00 0.00 69 1014.4
20260905150019 71 58 8.0 13.0 0.00 0.00 0.00 69 1014.4
20260905144519 71 100 6.0 11.0 0.00 0.00 0.00 73 1014.4
20260905143013 71 53 6.0 10.0 0.00 0.00 0.00 74 1014.3
20260905141511 70 58 5.0 11.0 0.00 0.00 0.00 75 1014.4
20260905140007 70 30 7.0 12.0 0.00 0.00 0.00 77 1014.3
20260905134502 69 61 7.0 12.0 0.00 0.00 0.00 78 1014.3
20260905133058 69 57 6.0 11.0 0.00 0.00 0.00 78 1014.2
20260905131553 69 54 6.0 12.0 0.00 0.00 0.00 79 1014.2
20260905130049 68 73 4.0 6.0 0.00 0.00 0.00 83 1014.2
20260905124547 66 58 2.0 5.0 0.00 0.01 0.00 84 1014.2
20260905123048 66 50 4.0 10.0 0.00 0.01 0.00 83 1014.1
20260905121541 66 69 1.0 5.0 0.00 0.01 0.00 84 1014.1
20260905120037 65 47 3.0 5.0 0.00 0.01 0.00 85 1013.9
20260905114534 65 44 4.0 7.0 0.00 0.01 0.00 86 1013.6
20260905113034 64 66 2.0 5.0 0.00 0.01 0.00 88 1013.6
20260905111531 64 55 3.0 6.0 0.00 0.01 0.00 88 1013.4
20260905110029 64 43 3.0 5.0 0.00 0.01 0.00 87 1013.4
20260905104528 64 62 4.0 10.0 0.00 0.01 0.00 87 1013.1
20260905103034 64 37 5.0 9.0 0.00 0.01 0.00 87 1013.2
20260905101530 65 28 5.0 8.0 0.00 0.01 0.00 87 1013.3
20260905100026 65 26 4.0 6.0 0.00 0.01 0.00 87 1013.5
20260905094526 65 48 4.0 5.0 0.00 0.01 0.00 87 1013.6
20260905093025 65 50 3.0 5.0 0.00 0.01 0.00 87 1013.6
20260905091524 65 36 4.0 6.0 0.00 0.01 0.00 88 1013.4
20260905090032 65 24 3.0 4.0 0.00 0.01 0.00 90 1013.2
20260905084522 65 40 1.0 3.0 0.00 0.01 0.00 91 1013.3
20260905083021 65 40 1.0 3.0 0.00 0.01 0.00 91 1013.4
20260905081522 65 48 2.0 6.0 0.00 0.01 0.00 91 1013.1
20260905080021 65 34 3.0 5.0 0.00 0.01 0.00 92 1013.1
20260905074519 65 36 3.0 5.0 0.00 0.01 0.00 92 1012.8
20260905073019 65 13 2.0 4.0 0.00 0.01 0.00 92 1012.8
20260905071519 65 39 1.0 3.0 0.00 0.01 0.00 92 1012.6
20260905070019 65 39 2.0 6.0 0.00 0.01 0.00 92 1012.7
20260905064513 65 36 3.0 4.0 0.00 0.01 0.00 92 1013.1
20260905063011 63 46 2.0 5.0 0.00 0.01 0.00 91 1012.8
20260905061510 63 18 0.0 0.0 0.00 0.01 0.00 91 1012.9
20260905060009 63 19 0.0 2.0 0.00 0.01 0.00 91 1013.2
20260905054511 64 28 1.0 2.0 0.00 0.01 0.00 90 1013.2
20260905053011 63 28 2.0 3.0 0.00 0.01 0.00 91 1013.2
20260905051505 63 45 1.0 3.0 0.00 0.01 0.00 91 1013.1
20260905050004 62 45 1.0 3.0 0.00 0.01 0.00 91 1013.0
20260905044502 62 360 1.0 4.0 0.00 0.01 0.00 91 1013.1
20260905043101 63 360 0.0 0.0 0.00 0.01 0.00 91 1013.2
20260905041557 63 360 0.0 0.0 0.00 0.01 0.00 90 1013.3
20260905040059 63 360 1.0 3.0 0.00 0.01 0.00 90 1013.3
20260905034553 64 360 1.0 3.0 0.00 0.01 0.01 89 1013.6
20260905033053 65 14 2.0 4.0 0.00 0.01 0.01 88 1013.6
20260905031553 65 338 1.0 3.0 0.00 0.01 0.01 87 1013.6
20260905024550 66 22 3.0 8.0 0.00 0.01 0.01 88 1013.6
20260905023051 66 33 5.0 8.0 0.00 0.01 0.01 88 1013.5
20260905021550 66 48 3.0 6.0 0.00 0.01 0.01 88 1013.5
20260905014548 66 5 3.0 5.0 0.00 0.01 0.01 86 1013.9
20260905013053 66 360 2.0 4.0 0.00 0.01 0.01 87 1013.9
20260905011625 65 45 2.0 3.0 0.00 0.01 0.01 88 1013.8
20260905010047 65 45 0.0 3.0 0.00 0.01 0.01 88 1013.7
20260905004547 66 45 2.0 3.0 0.00 0.01 0.01 87 1013.6
20260905003047 66 5 0.0 1.0 0.00 0.01 0.01 86 1013.6
20260905001556 65 5 0.0 2.0 0.00 0.01 0.01 86 1013.4
20260905000046 66 49 2.0 5.0 0.00 0.01 0.01 84 1013.2
20260904234544 67 38 3.0 9.0 0.00 0.01 0.01 81 1013.2
20260904233045 68 42 6.0 11.0 0.00 0.01 0.01 79 1012.8
20260904231542 68 51 6.0 11.0 0.00 0.01 0.01 79 1012.8
20260904230042 69 46 7.0 10.0 0.00 0.01 0.01 80 1012.9
20260904224546 69 39 5.0 11.0 0.00 0.01 0.01 80 1012.8
20260904223042 69 49 6.0 9.0 0.00 0.01 0.01 81 1012.9
20260904221541 69 69 5.0 11.0 0.00 0.01 0.01 81 1012.7
20260904220040 69 60 7.0 15.0 0.00 0.01 0.01 80 1012.6
20260904214538 70 55 10.0 15.0 0.00 0.01 0.01 79 1012.3
20260904213039 69 55 7.0 13.0 0.00 0.01 0.01 84 1012.4
20260904211538 69 65 9.0 15.0 0.00 0.01 0.01 85 1012.4
20260904210037 69 38 10.0 16.0 0.00 0.01 0.01 86 1012.3
20260904204537 69 39 9.0 16.0 0.00 0.05 0.01 86 1012.1
20260904203037 70 44 11.0 15.0 0.00 0.05 0.01 87 1012.2
20260904201535 71 69 6.0 12.0 0.00 0.05 0.01 88 1012.3
20260904200035 70 55 9.0 12.0 0.00 0.05 0.01 88 1012.4
20260904194539 70 51 6.0 11.0 0.00 0.34 0.01 88 1012.5
20260904193033 71 74 9.0 12.0 0.00 0.34 0.01 87 1012.2
20260904191533 72 63 8.0 12.0 0.00 0.34 0.01 87 1012.2
20260904190032 72 57 9.0 12.0 0.00 0.34 0.01 86 1012.4
20260904184534 72 59 8.0 12.0 0.00 0.36 0.01 86 1012.5
20260904183030 73 86 4.0 8.0 0.00 0.36 0.01 84 1012.4
20260904181543 74 82 2.0 7.0 0.00 0.36 0.01 82 1012.2
20260904180026 74 42 0.0 7.0 0.00 0.36 0.01 82 1012.5
20260904174525 74 121 2.0 5.0 0.00 0.36 0.01 83 1012.5
20260904173023 74 106 3.0 6.0 0.00 0.36 0.01 82 1012.8
20260904171521 73 163 4.0 7.0 0.00 0.36 0.01 83 1013.0
20260904170020 73 167 4.0 6.0 0.00 0.36 0.01 83 1013.0
20260904164519 73 164 3.0 8.0 0.00 0.36 0.01 83 1013.3
20260904163016 72 144 3.0 6.0 0.00 0.36 0.01 85 1013.5
20260904161513 71 118 4.0 7.0 0.00 0.36 0.01 87 1013.6
20260904160014 71 192 3.0 6.0 0.00 0.36 0.01 87 1013.8
20260904154508 70 155 2.0 5.0 0.00 0.36 0.01 89 1014.0
20260904153013 69 156 0.0 4.0 0.00 0.36 0.01 90 1014.5